一网星座-0568星 (ONEWEB-0568)

导读 | 星芒AI

ONEWEB-0568 是 OneWeb 卫星通信星座计划中的一颗低轨通信卫星,旨在为全球提供高速互联网服务。该卫星采用模块化设计,搭载先进通信载荷,支持高带宽数据传输。它于近期成功发射并进入预定轨道,加入 OneWeb 的卫星网络,助力实现偏远地区和航空、航海等领域的宽带覆盖。该计划致力于构建全球无缝连接,推动数字包容性发展。

基本信息
目录编号:
56062
目录名称:
ONEWEB-0568
国际标识:
2023-043S
轨道中心:
EARTH
卫星名称:
一网星座-0568星
卫星全名:
一网星座-0568星 (ONEWEB-0568)
卫星状态:
在轨 (已飞行996 天)
发射日期:
2023-03-26 UTC
国别 :
英国 (GB)
星等 :
--
轨道信息
数据来源 国际轨道数据
星历时间: 2025-12-15T15:49:51+0800
18小时前
查看轨道信息
半长轴: 7575.887km
偏心率: 0.000144
轨道倾角: 87.905°
近地点辐角 79.836°
升交点赤经 265.380°
平近点角 280.294°
近地点: 1196.661km
远地点: 1198.843km
周期: 109.373分钟
每日圈数: 13.165961
详细信息
平衡模式:
三轴稳定
覆盖范围:
全球
运营商:
一网卫星公司
运营商所在国:
英国
制造商(研发单位):
一网卫星公司
制造商所在国:
英国
使用方式:
暂无
卫星简介
OneWeb卫星网络由648颗重约125公斤的微型卫星组成,运行在1200公里的轨道上。 每颗卫星都能够提供至少每秒8千兆位的吞吐量,以使用其高吞吐量的Ku频段有效载荷为家庭和移动平台提供互联网接入。该卫星仍在工作。
2D轨道图
3D轨道图
轨道高度分析图
轨道倾角分析图
轨道综合分析图
查看轨道综合分析图